| time (UTC) | temp F | wind direction | speed MPH | gust MPH | rain 1hr in | rain 24hr in | rain mn in | humidity % | barometer mb |
| 20260901141016 | 57 | 0.0 | 1.0 | 0.00 | 0.19 | 0.00 | 100 | 1010.4 | |
| 20260901140016 | 57 | 0.0 | 0.0 | 0.00 | 0.19 | 0.00 | 100 | 1010.3 | |
| 20260901135016 | 57 | 0.0 | 0.0 | 0.00 | 0.19 | 0.00 | 100 | 1010.2 | |
| 20260901134016 | 57 | 0.0 | 0.0 | 0.00 | 0.62 | 0.00 | 100 | 1010.2 | |
| 20260901133016 | 57 | 0.0 | 1.0 | 0.00 | 0.63 | 0.00 | 100 | 1010.2 | |
| 20260901132016 | 57 | 0.0 | 0.0 | 0.00 | 0.70 | 0.00 | 100 | 1010.3 | |
| 20260901131016 | 57 | 0.0 | 0.0 | 0.00 | 0.71 | 0.00 | 100 | 1010.2 | |
| 20260901130016 | 57 | 0.0 | 1.0 | 0.00 | 0.71 | 0.00 | 100 | 1010.1 | |
| 20260901125016 | 57 | 0.0 | 0.0 | 0.00 | 0.71 | 0.00 | 100 | 1010.1 | |
| 20260901124016 | 57 | 0.0 | 0.0 | 0.00 | 0.71 | 0.00 | 100 | 1010.0 | |
| 20260901123036 | 57 | 0.0 | 0.0 | 0.00 | 0.71 | 0.00 | 100 | 1010.2 | |
| 20260901122016 | 57 | 0.0 | 0.0 | 0.00 | 0.71 | 0.00 | 100 | 1010.1 | |
| 20260901121016 | 57 | 0.0 | 0.0 | 0.00 | 0.71 | 0.00 | 100 | 1010.0 | |
| 20260901120016 | 57 | 0.0 | 0.0 | 0.00 | 0.71 | 0.00 | 100 | 1009.8 | |
| 20260901115016 | 57 | 0.0 | 0.0 | 0.00 | 0.71 | 0.00 | 100 | 1009.9 | |
| 20260901114015 | 58 | 0.0 | 0.0 | 0.00 | 0.71 | 0.00 | 100 | 1009.9 | |
| 20260901113016 | 57 | 0.0 | 0.0 | 0.00 | 0.71 | 0.00 | 100 | 1009.7 | |
| 20260901112016 | 57 | 0.0 | 0.0 | 0.00 | 0.71 | 0.00 | 100 | 1009.7 | |
| 20260901111016 | 57 | 0.0 | 0.0 | 0.00 | 0.71 | 0.00 | 100 | 1009.7 | |
| 20260901110016 | 58 | 0.0 | 0.0 | 0.00 | 0.71 | 0.00 | 100 | 1009.4 | |
| 20260901105015 | 58 | 0.0 | 0.0 | 0.00 | 0.71 | 0.00 | 100 | 1009.5 | |
| 20260901104017 | 58 | 0.0 | 0.0 | 0.00 | 0.71 | 0.00 | 100 | 1009.4 | |
| 20260901103018 | 58 | 0.0 | 0.0 | 0.00 | 0.71 | 0.00 | 100 | 1009.4 | |
| 20260901102036 | 58 | 0.0 | 0.0 | 0.00 | 0.71 | 0.00 | 100 | 1009.5 | |
| 20260901101035 | 58 | 0.0 | 0.0 | 0.00 | 0.71 | 0.00 | 100 | 1009.3 | |
| 20260901100015 | 58 | 0.0 | 0.0 | 0.00 | 0.71 | 0.00 | 100 | 1009.2 | |
| 20260901095016 | 58 | 0.0 | 0.0 | 0.00 | 0.71 | 0.00 | 100 | 1009.2 | |
| 20260901094016 | 58 | 0.0 | 0.0 | 0.00 | 0.71 | 0.00 | 100 | 1009.1 | |
| 20260901093015 | 58 | 0.0 | 0.0 | 0.00 | 0.71 | 0.00 | 100 | 1009.2 | |
| 20260901092015 | 58 | 0.0 | 0.0 | 0.00 | 0.71 | 0.00 | 100 | 1009.1 | |
| 20260901091018 | 58 | 0.0 | 0.0 | 0.00 | 0.71 | 0.00 | 100 | 1009.1 | |
| 20260901090015 | 58 | 0.0 | 0.0 | 0.00 | 0.71 | 0.00 | 100 | 1009.3 | |
| 20260901085016 | 59 | 0.0 | 0.0 | 0.00 | 0.71 | 0.00 | 100 | 1009.0 | |
| 20260901084015 | 59 | 0.0 | 0.0 | 0.00 | 0.71 | 0.00 | 100 | 1009.1 | |
| 20260901083056 | 59 | 0.0 | 0.0 | 0.00 | 0.71 | 0.00 | 100 | 1009.0 | |
| 20260901082015 | 59 | 0.0 | 0.0 | 0.00 | 0.71 | 0.00 | 100 | 1009.1 | |
| 20260901081035 | 59 | 0.0 | 0.0 | 0.00 | 0.71 | 0.00 | 100 | 1009.0 | |
| 20260901080057 | 60 | 0.0 | 0.0 | 0.00 | 0.71 | 0.00 | 100 | 1008.9 | |
| 20260901075017 | 60 | 0.0 | 0.0 | 0.03 | 0.71 | 0.00 | 100 | 1008.9 | |
| 20260901074017 | 60 | 0.0 | 0.0 | 0.03 | 0.71 | 0.00 | 100 | 1008.8 | |
| 20260901073017 | 60 | 0.0 | 0.0 | 0.03 | 0.71 | 0.00 | 100 | 1008.7 | |
| 20260901072037 | 60 | 0.0 | 0.0 | 0.03 | 0.75 | 0.00 | 100 | 1008.7 | |
| 20260901071037 | 61 | 0.0 | 0.0 | 0.03 | 0.75 | 0.00 | 100 | 1008.6 | |
| 20260901070017 | 61 | 0.0 | 0.0 | 0.03 | 0.75 | 0.75 | 100 | 1008.5 | |
| 20260901065015 | 61 | 0.0 | 0.0 | 0.00 | 0.72 | 0.72 | 100 | 1008.5 | |
| 20260901064015 | 61 | 0.0 | 0.0 | 0.00 | 0.72 | 0.72 | 100 | 1008.5 | |
| 20260901063017 | 62 | 0.0 | 0.0 | 0.00 | 0.72 | 0.72 | 100 | 1008.5 | |
| 20260901062037 | 62 | 0.0 | 0.0 | 0.00 | 0.72 | 0.72 | 100 | 1008.4 | |
| 20260901061017 | 62 | 0.0 | 0.0 | 0.00 | 0.72 | 0.72 | 100 | 1008.4 | |
| 20260901060017 | 62 | 0.0 | 0.0 | 0.00 | 0.72 | 0.72 | 100 | 1008.5 | |
| 20260901055017 | 63 | 0.0 | 0.0 | 0.00 | 0.72 | 0.72 | 100 | 1008.6 | |
| 20260901054017 | 63 | 0.0 | 0.0 | 0.01 | 0.72 | 0.72 | 100 | 1008.6 | |
| 20260901053017 | 64 | 0.0 | 0.0 | 0.02 | 0.72 | 0.72 | 100 | 1008.5 | |
| 20260901052017 | 64 | 0.0 | 0.0 | 0.02 | 0.72 | 0.72 | 100 | 1008.5 | |
| 20260901051017 | 64 | 0.0 | 0.0 | 0.02 | 0.72 | 0.72 | 100 | 1008.5 | |
| 20260901050017 | 65 | 0.0 | 0.0 | 0.02 | 0.72 | 0.72 | 100 | 1008.4 | |
| 20260901045017 | 65 | 0.0 | 0.0 | 0.02 | 0.72 | 0.72 | 100 | 1008.5 | |
| 20260901044017 | 65 | 0.0 | 0.0 | 0.01 | 0.71 | 0.71 | 100 | 1008.5 | |
| 20260901043017 | 66 | 0.0 | 0.0 | 0.00 | 0.70 | 0.70 | 100 | 1008.4 | |
| 20260901042017 | 66 | 0.0 | 0.0 | 0.00 | 0.70 | 0.70 | 100 | 1008.5 | |
| 20260901041017 | 66 | 0.0 | 0.0 | 0.00 | 0.70 | 0.70 | 100 | 1008.5 | |
| 20260901040017 | 67 | 0.0 | 0.0 | 0.00 | 0.70 | 0.70 | 100 | 1008.5 | |
| 20260901035016 | 67 | 0.0 | 0.0 | 0.00 | 0.70 | 0.70 | 100 | 1008.3 | |
| 20260901034037 | 68 | 0.0 | 0.0 | 0.00 | 0.70 | 0.70 | 100 | 1008.2 | |
| 20260901033017 | 68 | 0.0 | 0.0 | 0.00 | 0.70 | 0.70 | 100 | 1008.1 | |
| 20260901032017 | 69 | 0.0 | 0.0 | 0.00 | 0.70 | 0.70 | 100 | 1008.1 | |
| 20260901031017 | 69 | 0.0 | 0.0 | 0.00 | 0.71 | 0.70 | 100 | 1007.7 | |
| 20260901030018 | 70 | 0.0 | 0.0 | 0.00 | 0.72 | 0.70 | 100 | 1007.7 | |
| 20260901025057 | 71 | 0.0 | 0.0 | 0.00 | 0.72 | 0.70 | 100 | 1007.6 | |
| 20260901024037 | 72 | 0.0 | 0.0 | 0.00 | 0.72 | 0.70 | 100 | 1007.6 | |
| 20260901023016 | 73 | 0.0 | 0.0 | 0.00 | 0.72 | 0.70 | 100 | 1007.6 | |
| 20260901022016 | 73 | 0.0 | 0.0 | 0.00 | 0.72 | 0.70 | 100 | 1007.7 | |
| 20260901021016 | 74 | 0.0 | 0.0 | 0.00 | 0.72 | 0.70 | 100 | 1007.8 | |
| 20260901020016 | 74 | 0.0 | 0.0 | 0.00 | 0.72 | 0.70 | 100 | 1007.9 | |
| 20260901015016 | 75 | 0.0 | 0.0 | 0.00 | 0.72 | 0.70 | 100 | 1007.9 | |
| 20260901014016 | 75 | 0.0 | 0.0 | 0.00 | 0.73 | 0.70 | 100 | 1008.0 | |
| 20260901013017 | 75 | 0.0 | 0.0 | 0.00 | 0.74 | 0.70 | 100 | 1008.0 | |
| 20260901012016 | 76 | 0.0 | 0.0 | 0.00 | 0.74 | 0.70 | 100 | 1008.0 | |
| 20260901011016 | 76 | 0.0 | 0.0 | 0.00 | 0.74 | 0.70 | 100 | 1008.1 | |
| 20260901010016 | 77 | 0.0 | 0.0 | 0.00 | 0.74 | 0.70 | 100 | 1008.0 | |
| 20260901005016 | 78 | 0.0 | 0.0 | 0.00 | 0.74 | 0.70 | 100 | 1008.0 | |
| 20260901004016 | 78 | 0.0 | 0.0 | 0.00 | 0.74 | 0.70 | 100 | 1008.2 | |
| 20260901003016 | 79 | 0.0 | 0.0 | 0.00 | 0.75 | 0.70 | 100 | 1008.3 | |
| 20260901002016 | 79 | 0.0 | 1.0 | 0.00 | 0.75 | 0.70 | 100 | 1008.3 | |
| 20260901001036 | 80 | 0.0 | 1.0 | 0.00 | 0.80 | 0.70 | 100 | 1008.4 | |
| 20260901000016 | 81 | 0.0 | 1.0 | 0.00 | 0.80 | 0.70 | 100 | 1008.5 | |
| 20260831235016 | 81 | 0.0 | 1.0 | 0.00 | 0.80 | 0.70 | 100 | 1008.5 | |
| 20260831234016 | 82 | 0.0 | 2.0 | 0.00 | 0.80 | 0.70 | 100 | 1008.6 | |
| 20260831233016 | 81 | 0.0 | 1.0 | 0.00 | 0.80 | 0.70 | 100 | 1008.5 | |
| 20260831232036 | 82 | 0.0 | 4.0 | 0.00 | 0.80 | 0.70 | 100 | 1008.5 | |
| 20260831231116 | 82 | 0.0 | 2.0 | 0.00 | 0.80 | 0.70 | 100 | 1008.6 | |
| 20260831230016 | 81 | 0.0 | 0.0 | 0.00 | 0.80 | 0.70 | 100 | 1008.7 | |
| 20260831225016 | 81 | 0.0 | 1.0 | 0.00 | 0.80 | 0.70 | 100 | 1008.9 | |
| 20260831224016 | 80 | 0.0 | 1.0 | 0.00 | 0.80 | 0.70 | 100 | 1009.0 | |
| 20260831223016 | 80 | 0.0 | 2.0 | 0.00 | 0.80 | 0.70 | 100 | 1009.3 | |
| 20260831222016 | 80 | 0.0 | 3.0 | 0.00 | 0.80 | 0.70 | 100 | 1009.4 | |
| 20260831221016 | 80 | 0.0 | 1.0 | 0.00 | 0.80 | 0.70 | 100 | 1009.5 | |
| 20260831220016 | 79 | 0.0 | 3.0 | 0.00 | 0.80 | 0.70 | 100 | 1009.6 | |
| 20260831215015 | 80 | 0.0 | 1.0 | 0.00 | 0.80 | 0.70 | 100 | 1009.8 | |
| 20260831214016 | 80 | 0.0 | 1.0 | 0.00 | 0.80 | 0.70 | 100 | 1010.0 | |
| 20260831213016 | 80 | 0.0 | 2.0 | 0.00 | 0.80 | 0.70 | 100 | 1010.2 | |
| 20260831212015 | 80 | 68 | 1.0 | 2.0 | 0.00 | 0.80 | 0.70 | 100 | 1010.2 |
| 20260831211036 | 79 | 0.0 | 1.0 | 0.00 | 0.80 | 0.70 | 100 | 1010.2 | |
| 20260831210015 | 79 | 225 | 1.0 | 4.0 | 0.00 | 0.81 | 0.70 | 100 | 1010.3 |
| 20260831205016 | 78 | 0.0 | 1.0 | 0.00 | 0.81 | 0.70 | 100 | 1010.4 | |
| 20260831204016 | 78 | 0.0 | 1.0 | 0.00 | 0.82 | 0.70 | 100 | 1010.5 | |
| 20260831203015 | 78 | 0.0 | 3.0 | 0.00 | 0.82 | 0.70 | 100 | 1010.7 | |
| 20260831202016 | 78 | 0.0 | 3.0 | 0.00 | 0.82 | 0.70 | 100 | 1010.8 | |
| 20260831201015 | 76 | 0.0 | 4.0 | 0.00 | 0.82 | 0.70 | 100 | 1011.1 | |
| 20260831200015 | 76 | 0.0 | 2.0 | 0.00 | 0.82 | 0.70 | 100 | 1011.2 | |
| 20260831195015 | 75 | 0.0 | 1.0 | 0.00 | 0.82 | 0.70 | 100 | 1011.2 | |
| 20260831194015 | 74 | 0.0 | 2.0 | 0.00 | 0.82 | 0.70 | 100 | 1011.5 | |
| 20260831193015 | 73 | 0.0 | 3.0 | 0.00 | 0.82 | 0.70 | 100 | 1011.8 | |
| 20260831192015 | 73 | 0.0 | 1.0 | 0.00 | 0.82 | 0.70 | 100 | 1011.9 | |
| 20260831191015 | 73 | 0.0 | 2.0 | 0.00 | 0.82 | 0.70 | 100 | 1011.9 | |
| 20260831190017 | 72 | 0.0 | 1.0 | 0.00 | 0.82 | 0.70 | 100 | 1012.1 | |
| 20260831185017 | 71 | 0.0 | 2.0 | 0.00 | 0.82 | 0.70 | 100 | 1012.2 | |
| 20260831184017 | 69 | 0.0 | 1.0 | 0.00 | 0.82 | 0.70 | 100 | 1012.4 | |
| 20260831183017 | 67 | 0.0 | 1.0 | 0.00 | 0.82 | 0.70 | 100 | 1012.5 | |
| 20260831182017 | 66 | 0.0 | 1.0 | 0.00 | 0.82 | 0.70 | 100 | 1012.5 | |
| 20260831181017 | 65 | 0.0 | 0.0 | 0.00 | 0.82 | 0.70 | 100 | 1012.7 | |
| 20260831180037 | 65 | 0.0 | 2.0 | 0.00 | 0.82 | 0.70 | 100 | 1012.7 | |
| 20260831175037 | 65 | 0.0 | 1.0 | 0.00 | 0.82 | 0.70 | 100 | 1012.7 | |
| 20260831174017 | 64 | 0.0 | 1.0 | 0.00 | 0.83 | 0.70 | 100 | 1013.0 | |
| 20260831173017 | 64 | 0.0 | 1.0 | 0.00 | 0.83 | 0.70 | 100 | 1012.9 | |
| 20260831172017 | 63 | 0.0 | 1.0 | 0.11 | 0.83 | 0.70 | 100 | 1013.1 | |
| 20260831171017 | 63 | 0.0 | 1.0 | 0.14 | 0.83 | 0.70 | 100 | 1013.0 | |
| 20260831170017 | 62 | 0.0 | 2.0 | 0.14 | 0.83 | 0.70 | 100 | 1013.2 | |
| 20260831165017 | 62 | 0.0 | 1.0 | 0.14 | 0.83 | 0.70 | 100 | 1013.1 | |
| 20260831164036 | 61 | 0.0 | 0.0 | 0.14 | 0.83 | 0.70 | 100 | 1013.4 | |
| 20260831163037 | 61 | 0.0 | 3.0 | 0.14 | 0.83 | 0.70 | 100 | 1013.3 | |
| 20260831162016 | 61 | 0.0 | 0.0 | 0.03 | 0.72 | 0.59 | 100 | 1013.4 | |
| 20260831161016 | 60 | 0.0 | 0.0 | 0.00 | 0.69 | 0.56 | 100 | 1013.5 | |
| 20260831160017 | 60 | 0.0 | 0.0 | 0.00 | 0.69 | 0.56 | 100 | 1013.7 | |
| 20260831155017 | 59 | 0.0 | 2.0 | 0.00 | 0.69 | 0.56 | 100 | 1013.7 | |
| 20260831154017 | 58 | 0.0 | 0.0 | 0.00 | 0.69 | 0.56 | 100 | 1013.7 | |
| 20260831153037 | 57 | 0.0 | 0.0 | 0.00 | 0.69 | 0.56 | 100 | 1013.8 | |
| 20260831152016 | 56 | 0.0 | 0.0 | 0.00 | 0.69 | 0.56 | 100 | 1013.8 | |
| 20260831151037 | 56 | 0.0 | 0.0 | 0.00 | 0.69 | 0.56 | 100 | 1013.9 | |
| 20260831150017 | 55 | 0.0 | 0.0 | 0.00 | 0.69 | 0.56 | 100 | 1013.9 | |
| 20260831145016 | 55 | 0.0 | 0.0 | 0.00 | 0.69 | 0.56 | 100 | 1013.9 | |
| 20260831144016 | 55 | 0.0 | 0.0 | 0.43 | 0.69 | 0.56 | 100 | 1013.7 | |
| 20260831143016 | 54 | 0.0 | 0.0 | 0.44 | 0.69 | 0.56 | 100 | 1013.8 | |
| 20260831142017 | 54 | 0.0 | 0.0 | 0.51 | 0.69 | 0.56 | 100 | 1013.9 |